sat.trackr.live / text

‹ back to catalog

STARLINK-30328

NORAD 57638 · 2023-122G

PAYLOAD ACTIVE UNKNOWN

§ Identity

Operator
Country
US
Launch date
2023-08-17
Launch site
AFETR
Launch vehicle
Mass (kg)
RCS (m²)

Purposes: comms

External: N2YO · Heavens-Above · Gunter

§ Orbital elements

Epoch: 2026-09-19T18:47:28.524192Z

Period
94.27 min
Inclination
43.0013°
Eccentricity
0.0001955
Mean motion
15.27587643 rev/d
Perigee alt
481.7 km
Apogee alt
484.4 km
Semi-major
6,861.2 km
B*
2.5468e-5
RAAN
65.0585°
Arg perigee
250.7176°
Mean anomaly
109.3464°
Rev number
17,203

§ Raw data

STARLINK-303281 57638U 23122G   26262.78296903  .00000439  00000+0  25468-4 0  99952 57638  43.0013  65.0585 0001955 250.7176 109.3464 15.27587643172037

JSON: /api/v1/satellites/57638 · /tle

For live sub-satellite position, see the globe view (requires WebGL).

§ Visibility from observer

Set your observer location to see the next 7 days of passes ≥ 10°. The values pass through the URL so the page stays shareable.

No JS? Fill the form by hand. The geolocation button needs JavaScript.